Time,TemperatureF,DewpointF,PressureIn,WindDirection,WindDirectionDegrees,WindSpeedMPH,WindSpeedGustMPH,Humidity,HourlyPrecipIn,Conditions,Clouds,dailyrainin,SoftwareType,DateUTC
2013-03-26 00:00:00,39.4,18.6,30.31,North,0,0.9,1.8,43,0.00,,,0.00,WUHU216HW,2013-03-26 05:00:00,
2013-03-26 00:05:00,39.2,19.0,30.31,NW,315,1.3,1.8,44,0.00,,,0.00,WUHU216HW,2013-03-26 05:05:00,
2013-03-26 00:10:00,39.1,18.8,30.30,NNW,338,0.9,1.8,44,0.00,,,0.00,WUHU216HW,2013-03-26 05:10:00,
2013-03-26 00:15:00,39.1,18.8,30.30,NW,315,0.4,1.8,44,0.00,,,0.00,WUHU216HW,2013-03-26 05:15:00,
2013-03-26 00:20:00,39.1,18.8,30.30,NW,315,0.9,1.3,44,0.00,,,0.00,WUHU216HW,2013-03-26 05:20:00,
2013-03-26 00:25:00,38.9,18.7,30.31,NW,315,1.3,1.8,44,0.00,,,0.00,WUHU216HW,2013-03-26 05:25:00,
2013-03-26 00:30:00,38.9,18.7,30.31,NW,315,1.1,1.8,44,0.00,,,0.00,WUHU216HW,2013-03-26 05:30:00,
2013-03-26 00:35:00,38.7,18.6,30.31,NNW,338,0.4,1.8,44,0.00,,,0.00,WUHU216HW,2013-03-26 05:35:00,
2013-03-26 00:40:00,38.7,18.6,30.30,NW,315,1.1,1.6,44,0.00,,,0.00,WUHU216HW,2013-03-26 05:40:00,
2013-03-26 00:45:00,38.7,19.1,30.30,NNE,23,0.4,1.6,45,0.00,,,0.00,WUHU216HW,2013-03-26 05:45:00,
2013-03-26 00:50:00,38.5,18.9,30.30,NW,315,1.1,1.6,45,0.00,,,0.00,WUHU216HW,2013-03-26 05:50:00,
2013-03-26 00:55:00,38.5,18.9,30.30,NNW,338,0.4,1.3,45,0.00,,,0.00,WUHU216HW,2013-03-26 05:55:00,
2013-03-26 01:00:00,38.2,18.5,30.30,NNW,338,1.3,1.6,45,0.00,,,0.00,WUHU216HW,2013-03-26 06:00:00,
2013-03-26 01:05:00,38.0,18.4,30.30,North,0,0.4,1.6,45,0.00,,,0.00,WUHU216HW,2013-03-26 06:05:00,
2013-03-26 01:10:00,37.8,18.3,30.30,NNW,338,1.8,1.8,45,0.00,,,0.00,WUHU216HW,2013-03-26 06:10:00,
2013-03-26 01:15:00,37.8,18.3,30.30,NNW,338,1.8,2.0,45,0.00,,,0.00,WUHU216HW,2013-03-26 06:15:00,
2013-03-26 01:20:00,37.8,18.3,30.30,NNW,338,1.8,2.0,45,0.00,,,0.00,WUHU216HW,2013-03-26 06:20:00,
2013-03-26 01:25:00,37.8,18.3,30.30,NNW,338,0.7,2.0,45,0.00,,,0.00,WUHU216HW,2013-03-26 06:25:00,
2013-03-26 01:30:00,37.8,18.3,30.30,NNW,338,1.1,2.2,45,0.00,,,0.00,WUHU216HW,2013-03-26 06:30:00,
2013-03-26 01:35:00,37.8,18.3,30.30,NNE,23,0.0,2.2,45,0.00,,,0.00,WUHU216HW,2013-03-26 06:35:00,
2013-03-26 01:40:00,37.8,18.3,30.30,North,0,0.0,1.6,45,0.00,,,0.00,WUHU216HW,2013-03-26 06:40:00,
2013-03-26 01:45:00,37.8,18.3,30.30,NE,45,0.4,1.3,45,0.00,,,0.00,WUHU216HW,2013-03-26 06:45:00,
2013-03-26 01:50:00,37.6,18.1,30.30,North,0,0.4,1.3,45,0.00,,,0.00,WUHU216HW,2013-03-26 06:50:00,
2013-03-26 01:55:00,37.6,18.6,30.30,NNW,338,0.0,0.9,46,0.00,,,0.00,WUHU216HW,2013-03-26 06:55:00,
2013-03-26 02:00:00,37.6,18.6,30.30,NE,45,0.4,1.1,46,0.00,,,0.00,WUHU216HW,2013-03-26 07:00:00,
2013-03-26 02:05:00,37.3,18.3,30.30,NE,45,0.0,1.1,46,0.00,,,0.00,WUHU216HW,2013-03-26 07:05:00,
2013-03-26 02:10:00,37.1,18.1,30.30,NNE,23,0.0,0.4,46,0.00,,,0.00,WUHU216HW,2013-03-26 07:10:00,
2013-03-26 02:15:00,37.1,18.1,30.30,NNE,23,0.7,0.9,46,0.00,,,0.00,WUHU216HW,2013-03-26 07:15:00,
2013-03-26 02:20:00,36.9,17.9,30.30,NW,315,0.7,1.1,46,0.00,,,0.00,WUHU216HW,2013-03-26 07:20:00,
2013-03-26 02:25:00,36.4,18.0,30.30,NNW,338,1.1,1.6,47,0.00,,,0.00,WUHU216HW,2013-03-26 07:25:00,
2013-03-26 02:30:00,36.0,17.6,30.30,NNW,338,0.7,1.6,47,0.00,,,0.00,WUHU216HW,2013-03-26 07:30:00,
2013-03-26 02:35:00,35.8,18.0,30.30,NNE,23,2.5,2.5,48,0.00,,,0.00,WUHU216HW,2013-03-26 07:35:00,
2013-03-26 02:40:00,35.8,18.0,30.30,North,0,1.8,2.7,48,0.00,,,0.00,WUHU216HW,2013-03-26 07:40:00,
2013-03-26 02:45:00,35.6,17.8,30.30,NNE,23,1.3,2.7,48,0.00,,,0.00,WUHU216HW,2013-03-26 07:45:00,
2013-03-26 02:50:00,35.5,17.6,30.30,NE,45,2.2,2.5,48,0.00,,,0.00,WUHU216HW,2013-03-26 07:50:00,
2013-03-26 02:55:00,35.5,18.2,30.30,ENE,68,1.6,3.4,49,0.00,,,0.00,WUHU216HW,2013-03-26 07:55:00,
2013-03-26 03:00:00,35.3,18.0,30.30,North,0,1.8,3.4,49,0.00,,,0.00,WUHU216HW,2013-03-26 08:00:00,
2013-03-26 03:05:00,35.3,18.0,30.30,North,0,2.0,3.1,49,0.00,,,0.00,WUHU216HW,2013-03-26 08:05:00,
2013-03-26 03:10:00,35.3,18.0,30.30,NNE,23,2.2,3.4,49,0.00,,,0.00,WUHU216HW,2013-03-26 08:10:00,
2013-03-26 03:15:00,35.3,18.0,30.30,NNW,338,2.2,4.0,49,0.00,,,0.00,WUHU216HW,2013-03-26 08:15:00,
2013-03-26 03:20:00,35.1,18.4,30.30,NNW,338,4.0,4.0,50,0.00,,,0.00,WUHU216HW,2013-03-26 08:20:00,
2013-03-26 03:25:00,34.9,18.2,30.30,NNE,23,0.7,4.0,50,0.00,,,0.00,WUHU216HW,2013-03-26 08:25:00,
2013-03-26 03:30:00,34.9,18.2,30.30,North,0,1.8,4.0,50,0.00,,,0.00,WUHU216HW,2013-03-26 08:30:00,
2013-03-26 03:35:00,34.9,18.2,30.30,North,0,2.5,2.9,50,0.00,,,0.00,WUHU216HW,2013-03-26 08:35:00,
2013-03-26 03:40:00,34.9,18.2,30.30,ENE,68,2.2,3.4,50,0.00,,,0.00,WUHU216HW,2013-03-26 08:40:00,
2013-03-26 03:45:00,34.9,18.2,30.30,NE,45,1.8,3.4,50,0.00,,,0.00,WUHU216HW,2013-03-26 08:45:00,
2013-03-26 03:50:00,34.6,18.3,30.30,NE,45,2.0,2.9,51,0.00,,,0.00,WUHU216HW,2013-03-26 08:50:00,
2013-03-26 03:55:00,34.6,18.3,30.30,North,0,1.3,2.9,51,0.00,,,0.00,WUHU216HW,2013-03-26 08:55:00,
2013-03-26 04:00:00,34.6,18.3,30.30,NE,45,2.0,3.6,51,0.00,,,0.00,WUHU216HW,2013-03-26 09:00:00,
2013-03-26 04:05:00,34.4,18.1,30.30,NE,45,1.8,3.6,51,0.00,,,0.00,WUHU216HW,2013-03-26 09:05:00,
2013-03-26 04:10:00,34.2,17.9,30.30,North,0,1.8,3.4,51,0.00,,,0.00,WUHU216HW,2013-03-26 09:10:00,
2013-03-26 04:15:00,34.2,17.9,30.30,NE,45,2.2,3.1,51,0.00,,,0.00,WUHU216HW,2013-03-26 09:15:00,
2013-03-26 04:20:00,34.2,17.9,30.30,NNE,23,1.3,2.9,51,0.00,,,0.00,WUHU216HW,2013-03-26 09:20:00,
2013-03-26 04:25:00,34.2,17.9,30.30,NNE,23,1.3,2.2,51,0.00,,,0.00,WUHU216HW,2013-03-26 09:25:00,
2013-03-26 04:30:00,34.0,17.7,30.30,North,0,0.9,1.8,51,0.00,,,0.00,WUHU216HW,2013-03-26 09:30:00,
2013-03-26 04:35:00,34.0,18.2,30.30,NNW,338,0.4,1.8,52,0.00,,,0.00,WUHU216HW,2013-03-26 09:35:00,
2013-03-26 04:40:00,34.0,18.2,30.30,NNW,338,0.4,1.3,52,0.00,,,0.00,WUHU216HW,2013-03-26 09:40:00,
2013-03-26 04:45:00,34.0,18.2,30.30,NNW,338,0.0,1.3,52,0.00,,,0.00,WUHU216HW,2013-03-26 09:45:00,
2013-03-26 04:50:00,34.0,18.2,30.30,NNW,338,0.0,0.4,52,0.00,,,0.00,WUHU216HW,2013-03-26 09:50:00,
2013-03-26 04:55:00,34.2,18.4,30.30,NNW,338,0.0,0.0,52,0.00,,,0.00,WUHU216HW,2013-03-26 09:55:00,
2013-03-26 05:00:00,34.2,18.4,30.31,WNW,293,0.0,0.0,52,0.00,,,0.00,WUHU216HW,2013-03-26 10:00:00,
2013-03-26 05:05:00,34.2,18.4,30.31,WSW,248,1.1,1.1,52,0.00,,,0.00,WUHU216HW,2013-03-26 10:05:00,
2013-03-26 05:10:00,34.0,18.2,30.31,West,270,0.7,1.1,52,0.00,,,0.00,WUHU216HW,2013-03-26 10:10:00,
2013-03-26 05:15:00,33.8,18.0,30.31,West,270,0.0,1.1,52,0.00,,,0.00,WUHU216HW,2013-03-26 10:15:00,
2013-03-26 05:20:00,33.8,18.0,30.31,West,270,0.0,0.7,52,0.00,,,0.00,WUHU216HW,2013-03-26 10:20:00,
2013-03-26 05:25:00,33.7,17.8,30.31,West,270,0.4,0.4,52,0.00,,,0.00,WUHU216HW,2013-03-26 10:25:00,
2013-03-26 05:30:00,33.5,17.6,30.31,West,270,0.0,0.4,52,0.00,,,0.00,WUHU216HW,2013-03-26 10:30:00,
2013-03-26 05:35:00,33.3,17.9,30.31,West,270,0.0,0.4,53,0.00,,,0.00,WUHU216HW,2013-03-26 10:35:00,
2013-03-26 05:40:00,32.9,17.6,30.32,NNE,23,0.0,0.2,53,0.00,,,0.00,WUHU216HW,2013-03-26 10:40:00,
2013-03-26 05:45:00,32.8,17.5,30.32,NNE,23,0.4,0.9,53,0.00,,,0.00,WUHU216HW,2013-03-26 10:45:00,
2013-03-26 05:50:00,32.8,17.8,30.32,North,0,0.4,1.3,54,0.00,,,0.00,WUHU216HW,2013-03-26 10:50:00,
2013-03-26 05:55:00,32.8,17.8,30.32,NE,45,1.6,1.8,54,0.00,,,0.00,WUHU216HW,2013-03-26 10:55:00,
2013-03-26 06:00:00,32.4,17.6,30.32,NE,45,1.3,1.8,54,0.00,,,0.00,WUHU216HW,2013-03-26 11:00:00,
2013-03-26 06:05:00,32.2,17.4,30.32,NNE,23,0.9,1.8,54,0.00,,,0.00,WUHU216HW,2013-03-26 11:05:00,
2013-03-26 06:10:00,32.0,17.6,30.33,NNE,23,2.0,3.4,55,0.00,,,0.00,WUHU216HW,2013-03-26 11:10:00,
2013-03-26 06:15:00,31.9,17.0,30.33,NNE,23,2.5,3.4,54,0.00,,,0.00,WUHU216HW,2013-03-26 11:15:00,
2013-03-26 06:20:00,31.7,17.3,30.33,NNE,23,3.1,3.8,55,0.00,,,0.00,WUHU216HW,2013-03-26 11:20:00,
2013-03-26 06:25:00,31.7,17.3,30.33,NE,45,3.4,4.0,55,0.00,,,0.00,WUHU216HW,2013-03-26 11:25:00,
2013-03-26 06:30:00,31.7,17.3,30.33,NE,45,2.5,4.0,55,0.00,,,0.00,WUHU216HW,2013-03-26 11:30:00,
2013-03-26 06:35:00,31.7,17.3,30.33,ENE,68,1.8,4.0,55,0.00,,,0.00,WUHU216HW,2013-03-26 11:35:00,
2013-03-26 06:40:00,31.7,17.3,30.34,NNE,23,0.9,2.7,55,0.00,,,0.00,WUHU216HW,2013-03-26 11:40:00,
2013-03-26 06:45:00,31.5,17.1,30.34,NE,45,1.6,2.0,55,0.00,,,0.00,WUHU216HW,2013-03-26 11:45:00,
2013-03-26 06:50:00,31.5,17.1,30.34,NE,45,1.6,2.0,55,0.00,,,0.00,WUHU216HW,2013-03-26 11:50:00,
2013-03-26 06:55:00,31.3,16.9,30.35,ENE,68,1.8,2.2,55,0.00,,,0.00,WUHU216HW,2013-03-26 11:55:00,
2013-03-26 07:00:00,31.3,17.4,30.35,NNE,23,2.9,2.9,56,0.00,,,0.00,WUHU216HW,2013-03-26 12:00:00,
2013-03-26 07:05:00,31.3,17.4,30.35,NE,45,1.8,2.9,56,0.00,,,0.00,WUHU216HW,2013-03-26 12:05:00,
2013-03-26 07:10:00,31.1,17.2,30.35,NE,45,1.8,2.2,56,0.00,,,0.00,WUHU216HW,2013-03-26 12:10:00,
2013-03-26 07:15:00,31.0,17.0,30.35,NNE,23,2.0,2.5,56,0.00,,,0.00,WUHU216HW,2013-03-26 12:15:00,
2013-03-26 07:20:00,30.8,16.8,30.36,North,0,1.1,2.5,56,0.00,,,0.00,WUHU216HW,2013-03-26 12:20:00,
2013-03-26 07:25:00,31.0,17.0,30.36,NE,45,1.3,2.0,56,0.00,,,0.00,WUHU216HW,2013-03-26 12:25:00,
2013-03-26 07:30:00,31.0,17.5,30.36,NNE,23,1.1,1.6,57,0.00,,,0.00,WUHU216HW,2013-03-26 12:30:00,
2013-03-26 07:35:00,31.1,17.7,30.36,NNE,23,0.4,1.8,57,0.00,,,0.00,WUHU216HW,2013-03-26 12:35:00,
2013-03-26 07:40:00,31.3,17.8,30.37,North,0,0.4,1.8,57,0.00,,,0.00,WUHU216HW,2013-03-26 12:40:00,
2013-03-26 07:45:00,31.5,18.0,30.37,NNE,23,0.2,1.1,57,0.00,,,0.00,WUHU216HW,2013-03-26 12:45:00,
2013-03-26 07:50:00,31.7,18.2,30.37,North,0,1.1,1.1,57,0.00,,,0.00,WUHU216HW,2013-03-26 12:50:00,
2013-03-26 07:55:00,31.7,18.2,30.37,North,0,0.2,1.8,57,0.00,,,0.00,WUHU216HW,2013-03-26 12:55:00,
2013-03-26 08:00:00,32.0,18.6,30.38,North,0,1.1,1.8,57,0.00,,,0.00,WUHU216HW,2013-03-26 13:00:00,
2013-03-26 08:05:00,32.2,18.6,30.38,North,0,1.1,1.8,57,0.00,,,0.00,WUHU216HW,2013-03-26 13:05:00,
2013-03-26 08:10:00,32.8,19.2,30.38,NE,45,1.3,2.5,57,0.00,,,0.00,WUHU216HW,2013-03-26 13:10:00,
2013-03-26 08:15:00,32.9,19.7,30.38,North,0,1.8,2.5,58,0.00,,,0.00,WUHU216HW,2013-03-26 13:15:00,
2013-03-26 08:20:00,33.3,20.1,30.38,NNW,338,2.0,2.9,58,0.00,,,0.00,WUHU216HW,2013-03-26 13:20:00,
2013-03-26 08:25:00,33.5,20.3,30.38,North,0,1.1,2.9,58,0.00,,,0.00,WUHU216HW,2013-03-26 13:25:00,
2013-03-26 08:30:00,34.2,20.9,30.38,NNW,338,1.1,2.5,58,0.00,,,0.00,WUHU216HW,2013-03-26 13:30:00,
2013-03-26 08:35:00,34.6,21.2,30.39,NE,45,1.8,2.5,58,0.00,,,0.00,WUHU216HW,2013-03-26 13:35:00,
2013-03-26 08:40:00,35.3,22.0,30.39,NE,45,1.1,2.5,58,0.00,,,0.00,WUHU216HW,2013-03-26 13:40:00,
2013-03-26 08:45:00,35.8,22.5,30.39,NNE,23,2.9,3.4,58,0.00,,,0.00,WUHU216HW,2013-03-26 13:45:00,
2013-03-26 08:50:00,36.5,22.8,30.39,North,0,1.8,3.4,57,0.00,,,0.00,WUHU216HW,2013-03-26 13:50:00,
2013-03-26 08:55:00,37.1,23.2,30.40,NNW,338,1.6,4.3,57,0.00,,,0.00,WUHU216HW,2013-03-26 13:55:00,
2013-03-26 09:00:00,37.8,23.4,30.40,North,0,2.0,4.3,56,0.00,,,0.00,WUHU216HW,2013-03-26 14:00:00,
2013-03-26 09:05:00,38.3,23.5,30.40,NE,45,2.5,3.8,55,0.00,,,0.00,WUHU216HW,2013-03-26 14:05:00,
2013-03-26 09:10:00,38.9,23.1,30.40,NE,45,5.6,5.6,53,0.00,,,0.00,WUHU216HW,2013-03-26 14:10:00,
2013-03-26 09:15:00,39.4,22.8,30.40,NE,45,5.4,5.6,51,0.00,,,0.00,WUHU216HW,2013-03-26 14:15:00,
2013-03-26 09:20:00,39.6,22.0,30.41,NE,45,5.4,6.9,49,0.00,,,0.00,WUHU216HW,2013-03-26 14:20:00,
2013-03-26 09:25:00,40.0,21.3,30.41,NE,45,6.7,8.3,47,0.00,,,0.00,WUHU216HW,2013-03-26 14:25:00,
2013-03-26 09:30:00,40.3,22.1,30.41,NNE,23,6.5,8.3,48,0.00,,,0.00,WUHU216HW,2013-03-26 14:30:00,
2013-03-26 09:35:00,40.9,22.1,30.41,ENE,68,3.8,7.6,47,0.00,,,0.00,WUHU216HW,2013-03-26 14:35:00,
2013-03-26 09:40:00,41.4,23.0,30.41,NNW,338,3.8,6.5,48,0.00,,,0.00,WUHU216HW,2013-03-26 14:40:00,
2013-03-26 09:45:00,41.8,23.4,30.41,ENE,68,3.6,6.3,48,0.00,,,0.00,WUHU216HW,2013-03-26 14:45:00,
2013-03-26 09:50:00,42.3,23.9,30.41,NW,315,2.9,5.4,48,0.00,,,0.00,WUHU216HW,2013-03-26 14:50:00,
2013-03-26 09:55:00,42.8,24.5,30.41,NE,45,3.4,6.9,48,0.00,,,0.00,WUHU216HW,2013-03-26 14:55:00,
2013-03-26 10:00:00,43.0,24.7,30.41,NNE,23,2.9,6.9,48,0.00,,,0.00,WUHU216HW,2013-03-26 15:00:00,
2013-03-26 10:05:00,43.6,24.0,30.41,NW,315,4.5,6.9,46,0.00,,,0.00,WUHU216HW,2013-03-26 15:05:00,
2013-03-26 10:10:00,44.1,24.6,30.41,North,0,4.7,6.9,46,0.00,,,0.00,WUHU216HW,2013-03-26 15:10:00,
2013-03-26 10:15:00,44.5,24.3,30.41,North,0,6.9,6.9,45,0.00,,,0.00,WUHU216HW,2013-03-26 15:15:00,
2013-03-26 10:20:00,44.6,23.4,30.41,NW,315,4.3,6.9,43,0.00,,,0.00,WUHU216HW,2013-03-26 15:20:00,
2013-03-26 10:25:00,45.2,24.4,30.41,NNE,23,6.3,6.9,44,0.00,,,0.00,WUHU216HW,2013-03-26 15:25:00,
2013-03-26 10:30:00,45.5,24.2,30.41,North,0,3.4,6.9,43,0.00,,,0.00,WUHU216HW,2013-03-26 15:30:00,
2013-03-26 10:35:00,45.7,24.4,30.41,NE,45,3.6,6.9,43,0.00,,,0.00,WUHU216HW,2013-03-26 15:35:00,
2013-03-26 10:40:00,45.9,24.0,30.41,NW,315,4.7,7.2,42,0.00,,,0.00,WUHU216HW,2013-03-26 15:40:00,
2013-03-26 10:45:00,46.4,24.5,30.41,NNW,338,2.5,9.8,42,0.00,,,0.00,WUHU216HW,2013-03-26 15:45:00,
2013-03-26 10:50:00,46.6,23.6,30.41,NW,315,5.4,9.8,40,0.00,,,0.00,WUHU216HW,2013-03-26 15:50:00,
2013-03-26 10:55:00,47.0,24.4,30.41,West,270,3.8,8.9,41,0.00,,,0.00,WUHU216HW,2013-03-26 15:55:00,
2013-03-26 11:00:00,47.5,24.9,30.41,ENE,68,3.8,7.6,41,0.00,,,0.00,WUHU216HW,2013-03-26 16:00:00,
2013-03-26 11:05:00,48.1,24.8,30.41,NNW,338,5.1,6.7,40,0.00,,,0.00,WUHU216HW,2013-03-26 16:05:00,
2013-03-26 11:10:00,48.4,25.2,30.41,NW,315,0.7,6.7,40,0.00,,,0.00,WUHU216HW,2013-03-26 16:10:00,
2013-03-26 11:15:00,49.0,25.7,30.41,NW,315,6.3,6.3,40,0.00,,,0.00,WUHU216HW,2013-03-26 16:15:00,
2013-03-26 11:20:00,49.3,26.0,30.41,NW,315,3.1,6.3,40,0.00,,,0.00,WUHU216HW,2013-03-26 16:20:00,
2013-03-26 11:25:00,49.9,25.8,30.41,NW,315,4.5,7.8,39,0.00,,,0.00,WUHU216HW,2013-03-26 16:25:00,
2013-03-26 11:30:00,50.4,27.0,30.40,NE,45,1.8,7.8,40,0.00,,,0.00,WUHU216HW,2013-03-26 16:30:00,
2013-03-26 11:35:00,50.6,25.7,30.40,NW,315,4.3,8.9,38,0.00,,,0.00,WUHU216HW,2013-03-26 16:35:00,
2013-03-26 11:40:00,50.8,25.9,30.40,NE,45,4.7,8.9,38,0.00,,,0.00,WUHU216HW,2013-03-26 16:40:00,
2013-03-26 11:45:00,50.8,25.2,30.40,NE,45,3.8,8.1,37,0.00,,,0.00,WUHU216HW,2013-03-26 16:45:00,
2013-03-26 11:50:00,50.9,25.4,30.40,NE,45,1.8,8.1,37,0.00,,,0.00,WUHU216HW,2013-03-26 16:50:00,
2013-03-26 11:55:00,51.3,25.0,30.40,West,270,5.8,8.5,36,0.00,,,0.00,WUHU216HW,2013-03-26 16:55:00,
2013-03-26 12:00:00,51.5,25.9,30.39,NNW,338,5.8,9.8,37,0.00,,,0.00,WUHU216HW,2013-03-26 17:00:00,
2013-03-26 12:05:00,51.8,25.6,30.39,NW,315,4.0,9.8,36,0.00,,,0.00,WUHU216HW,2013-03-26 17:05:00,
2013-03-26 12:10:00,52.2,25.8,30.39,NNW,338,2.9,9.4,36,0.00,,,0.00,WUHU216HW,2013-03-26 17:10:00,
2013-03-26 12:15:00,52.7,26.4,30.39,NW,315,6.9,8.5,36,0.00,,,0.00,WUHU216HW,2013-03-26 17:15:00,
2013-03-26 12:20:00,52.7,25.7,30.39,West,270,2.7,9.8,35,0.00,,,0.00,WUHU216HW,2013-03-26 17:20:00,
2013-03-26 12:25:00,52.7,25.7,30.38,NNW,338,6.5,9.8,35,0.00,,,0.00,WUHU216HW,2013-03-26 17:25:00,
2013-03-26 12:30:00,53.1,26.6,30.38,NW,315,5.6,9.4,36,0.00,,,0.00,WUHU216HW,2013-03-26 17:30:00,
2013-03-26 12:35:00,53.5,27.0,30.38,North,0,4.0,8.7,36,0.00,,,0.00,WUHU216HW,2013-03-26 17:35:00,
2013-03-26 12:40:00,54.0,26.7,30.38,NW,315,5.1,8.5,35,0.00,,,0.00,WUHU216HW,2013-03-26 17:40:00,
2013-03-26 12:45:00,54.2,26.2,30.38,NNW,338,4.0,9.2,34,0.00,,,0.00,WUHU216HW,2013-03-26 17:45:00,
2013-03-26 12:50:00,54.4,27.1,30.37,NNW,338,3.8,9.2,35,0.00,,,0.00,WUHU216HW,2013-03-26 17:50:00,
2013-03-26 12:55:00,54.5,27.9,30.37,North,0,3.1,7.2,36,0.00,,,0.00,WUHU216HW,2013-03-26 17:55:00,
2013-03-26 13:00:00,55.1,27.0,30.37,North,0,4.7,6.9,34,0.00,,,0.00,WUHU216HW,2013-03-26 18:00:00,
2013-03-26 13:05:00,55.4,28.0,30.36,North,0,2.9,7.2,35,0.00,,,0.00,WUHU216HW,2013-03-26 18:05:00,
2013-03-26 13:10:00,56.0,27.8,30.36,North,0,2.9,9.8,34,0.00,,,0.00,WUHU216HW,2013-03-26 18:10:00,
2013-03-26 13:15:00,56.3,28.1,30.36,NNW,338,5.4,9.8,34,0.00,,,0.00,WUHU216HW,2013-03-26 18:15:00,
2013-03-26 13:20:00,56.7,28.5,30.35,WNW,293,6.7,7.2,34,0.00,,,0.00,WUHU216HW,2013-03-26 18:20:00,
2013-03-26 13:25:00,56.9,28.6,30.35,North,0,4.7,8.3,34,0.00,,,0.00,WUHU216HW,2013-03-26 18:25:00,
2013-03-26 13:30:00,56.7,27.0,30.35,NNW,338,6.3,8.5,32,0.00,,,0.00,WUHU216HW,2013-03-26 18:30:00,
2013-03-26 13:35:00,56.9,27.9,30.35,West,270,2.9,8.5,33,0.00,,,0.00,WUHU216HW,2013-03-26 18:35:00,
2013-03-26 13:40:00,57.2,28.2,30.35,North,0,4.0,9.6,33,0.00,,,0.00,WUHU216HW,2013-03-26 18:40:00,
2013-03-26 13:45:00,57.6,28.5,30.35,NE,45,1.8,9.6,33,0.00,,,0.00,WUHU216HW,2013-03-26 18:45:00,
2013-03-26 13:50:00,58.0,28.2,30.34,West,270,4.5,8.9,32,0.00,,,0.00,WUHU216HW,2013-03-26 18:50:00,
2013-03-26 13:55:00,58.0,28.2,30.34,West,270,4.7,8.9,32,0.00,,,0.00,WUHU216HW,2013-03-26 18:55:00,
2013-03-26 14:00:00,57.8,28.0,30.34,NNW,338,2.5,9.8,32,0.00,,,0.00,WUHU216HW,2013-03-26 19:00:00,
2013-03-26 14:05:00,58.1,28.4,30.34,NNW,338,5.4,9.8,32,0.00,,,0.00,WUHU216HW,2013-03-26 19:05:00,
2013-03-26 14:10:00,58.7,29.5,30.33,NE,45,1.1,6.9,33,0.00,,,0.00,WUHU216HW,2013-03-26 19:10:00,
2013-03-26 14:15:00,58.7,28.8,30.33,WNW,293,3.8,9.4,32,0.00,,,0.00,WUHU216HW,2013-03-26 19:15:00,
2013-03-26 14:20:00,58.9,28.3,30.33,WSW,248,2.0,9.4,31,0.00,,,0.00,WUHU216HW,2013-03-26 19:20:00,
2013-03-26 14:25:00,58.9,29.0,30.33,WSW,248,4.0,6.5,32,0.00,,,0.00,WUHU216HW,2013-03-26 19:25:00,
2013-03-26 14:30:00,59.4,29.4,30.32,West,270,6.0,9.4,32,0.00,,,0.00,WUHU216HW,2013-03-26 19:30:00,
2013-03-26 14:35:00,59.4,28.7,30.32,NNW,338,4.3,9.4,31,0.00,,,0.00,WUHU216HW,2013-03-26 19:35:00,
2013-03-26 14:40:00,59.4,28.7,30.32,WNW,293,3.6,7.2,31,0.00,,,0.00,WUHU216HW,2013-03-26 19:40:00,
2013-03-26 14:45:00,59.6,27.2,30.32,West,270,9.6,9.6,29,0.00,,,0.00,WUHU216HW,2013-03-26 19:45:00,
2013-03-26 14:50:00,59.2,28.5,30.32,WSW,248,4.0,9.8,31,0.00,,,0.00,WUHU216HW,2013-03-26 19:50:00,
2013-03-26 14:55:00,59.6,28.9,30.31,WNW,293,3.8,9.8,31,0.00,,,0.00,WUHU216HW,2013-03-26 19:55:00,
2013-03-26 15:00:00,60.1,28.6,30.31,NW,315,3.8,6.3,30,0.00,,,0.00,WUHU216HW,2013-03-26 20:00:00,
2013-03-26 15:05:00,60.1,28.6,30.30,NW,315,3.4,6.3,30,0.00,,,0.00,WUHU216HW,2013-03-26 20:05:00,
2013-03-26 15:10:00,60.3,29.4,30.30,NNW,338,3.1,7.2,31,0.00,,,0.00,WUHU216HW,2013-03-26 20:10:00,
2013-03-26 15:15:00,60.7,29.7,30.30,NW,315,7.6,7.6,31,0.00,,,0.00,WUHU216HW,2013-03-26 20:15:00,
2013-03-26 15:20:00,60.7,29.0,30.30,WNW,293,5.6,7.6,30,0.00,,,0.00,WUHU216HW,2013-03-26 20:20:00,
2013-03-26 15:25:00,60.5,28.9,30.30,West,270,11.4,11.4,30,0.00,,,0.00,WUHU216HW,2013-03-26 20:25:00,
2013-03-26 15:30:00,60.5,28.9,30.29,NW,315,5.6,11.4,30,0.00,,,0.00,WUHU216HW,2013-03-26 20:30:00,
2013-03-26 15:35:00,60.8,29.2,30.29,NNW,338,5.8,9.4,30,0.00,,,0.00,WUHU216HW,2013-03-26 20:35:00,
2013-03-26 15:40:00,61.0,29.4,30.28,West,270,6.5,9.2,30,0.00,,,0.00,WUHU216HW,2013-03-26 20:40:00,
2013-03-26 15:45:00,60.8,28.2,30.28,WNW,293,3.6,7.4,29,0.00,,,0.00,WUHU216HW,2013-03-26 20:45:00,
2013-03-26 15:50:00,60.8,28.2,30.28,West,270,9.2,9.2,29,0.00,,,0.00,WUHU216HW,2013-03-26 20:50:00,
2013-03-26 15:55:00,60.8,28.2,30.28,West,270,3.8,9.2,29,0.00,,,0.00,WUHU216HW,2013-03-26 20:55:00,
2013-03-26 16:00:00,61.2,29.5,30.27,West,270,4.0,9.2,30,0.00,,,0.00,WUHU216HW,2013-03-26 21:00:00,
2013-03-26 16:05:00,61.6,27.9,30.27,WSW,248,3.8,6.0,28,0.00,,,0.00,WUHU216HW,2013-03-26 21:05:00,
2013-03-26 16:10:00,61.0,28.4,30.27,NW,315,5.4,7.6,29,0.00,,,0.00,WUHU216HW,2013-03-26 21:10:00,
2013-03-26 16:15:00,61.0,28.4,30.27,NW,315,4.0,7.6,29,0.00,,,0.00,WUHU216HW,2013-03-26 21:15:00,
2013-03-26 16:20:00,61.2,27.5,30.27,WSW,248,6.9,8.7,28,0.00,,,0.00,WUHU216HW,2013-03-26 21:20:00,
2013-03-26 16:25:00,61.0,28.4,30.27,NW,315,6.0,10.3,29,0.00,,,0.00,WUHU216HW,2013-03-26 21:25:00,
2013-03-26 16:30:00,60.8,29.2,30.26,NNW,338,2.5,10.3,30,0.00,,,0.00,WUHU216HW,2013-03-26 21:30:00,
2013-03-26 16:35:00,61.2,28.5,30.26,NE,45,4.3,8.1,29,0.00,,,0.00,WUHU216HW,2013-03-26 21:35:00,
2013-03-26 16:40:00,61.4,28.7,30.26,East,90,1.3,5.4,29,0.00,,,0.00,WUHU216HW,2013-03-26 21:40:00,
2013-03-26 16:45:00,61.2,28.5,30.25,NE,45,5.4,5.4,29,0.00,,,0.00,WUHU216HW,2013-03-26 21:45:00,
2013-03-26 16:50:00,61.0,27.5,30.25,SE,135,3.1,6.7,28,0.00,,,0.00,WUHU216HW,2013-03-26 21:50:00,
2013-03-26 16:55:00,60.8,28.2,30.25,South,180,2.5,6.7,29,0.00,,,0.00,WUHU216HW,2013-03-26 21:55:00,
2013-03-26 17:00:00,61.0,28.4,30.25,WNW,293,4.9,7.6,29,0.00,,,0.00,WUHU216HW,2013-03-26 22:00:00,
2013-03-26 17:05:00,61.2,27.5,30.25,WSW,248,4.5,7.8,28,0.00,,,0.00,WUHU216HW,2013-03-26 22:05:00,
2013-03-26 17:10:00,61.2,28.5,30.25,NNW,338,2.2,7.8,29,0.00,,,0.00,WUHU216HW,2013-03-26 22:10:00,
2013-03-26 17:15:00,61.7,29.0,30.25,NW,315,2.9,8.3,29,0.00,,,0.00,WUHU216HW,2013-03-26 22:15:00,
2013-03-26 17:20:00,61.9,28.2,30.24,NW,315,1.6,8.3,28,0.00,,,0.00,WUHU216HW,2013-03-26 22:20:00,
2013-03-26 17:25:00,61.7,29.0,30.24,NNE,23,2.9,4.9,29,0.00,,,0.00,WUHU216HW,2013-03-26 22:25:00,
2013-03-26 17:30:00,61.6,28.9,30.24,North,0,1.1,4.9,29,0.00,,,0.00,WUHU216HW,2013-03-26 22:30:00,
2013-03-26 17:35:00,61.6,27.9,30.24,NNW,338,1.1,4.7,28,0.00,,,0.00,WUHU216HW,2013-03-26 22:35:00,
2013-03-26 17:40:00,61.4,28.7,30.24,NE,45,2.7,3.6,29,0.00,,,0.00,WUHU216HW,2013-03-26 22:40:00,
2013-03-26 17:45:00,61.7,28.1,30.23,West,270,1.1,4.3,28,0.00,,,0.00,WUHU216HW,2013-03-26 22:45:00,
2013-03-26 17:50:00,61.9,29.2,30.23,NW,315,4.7,7.4,29,0.00,,,0.00,WUHU216HW,2013-03-26 22:50:00,
2013-03-26 17:55:00,61.6,27.9,30.24,NW,315,2.7,7.4,28,0.00,,,0.00,WUHU216HW,2013-03-26 22:55:00,
2013-03-26 18:00:00,60.8,27.3,30.23,NNW,338,1.1,5.4,28,0.00,,,0.00,WUHU216HW,2013-03-26 23:00:00,
2013-03-26 18:05:00,60.7,28.1,30.23,WNW,293,1.1,2.9,29,0.00,,,0.00,WUHU216HW,2013-03-26 23:05:00,
2013-03-26 18:10:00,61.0,28.4,30.23,ENE,68,0.4,3.4,29,0.00,,,0.00,WUHU216HW,2013-03-26 23:10:00,
2013-03-26 18:15:00,61.2,26.7,30.23,WSW,248,2.5,3.8,27,0.00,,,0.00,WUHU216HW,2013-03-26 23:15:00,
2013-03-26 18:20:00,61.0,27.5,30.23,West,270,1.8,3.8,28,0.00,,,0.00,WUHU216HW,2013-03-26 23:20:00,
2013-03-26 18:25:00,61.2,27.5,30.23,ESE,113,1.8,3.8,28,0.00,,,0.00,WUHU216HW,2013-03-26 23:25:00,
2013-03-26 18:30:00,61.0,27.5,30.23,SW,225,2.5,2.5,28,0.00,,,0.00,WUHU216HW,2013-03-26 23:30:00,
2013-03-26 18:35:00,60.7,27.1,30.23,SSW,203,1.6,2.9,28,0.00,,,0.00,WUHU216HW,2013-03-26 23:35:00,
2013-03-26 18:40:00,60.3,26.8,30.23,West,270,4.7,4.7,28,0.00,,,0.00,WUHU216HW,2013-03-26 23:40:00,
2013-03-26 18:45:00,59.9,26.6,30.23,SW,225,1.8,4.7,28,0.00,,,0.00,WUHU216HW,2013-03-26 23:45:00,
2013-03-26 18:50:00,59.6,26.2,30.23,North,0,0.4,4.7,28,0.00,,,0.00,WUHU216HW,2013-03-26 23:50:00,
2013-03-26 18:55:00,59.8,27.4,30.23,South,180,1.1,1.8,29,0.00,,,0.00,WUHU216HW,2013-03-26 23:55:00,
2013-03-26 19:00:00,59.6,26.2,30.23,SSE,158,0.4,1.3,28,0.00,,,0.00,WUHU216HW,2013-03-27 00:00:00,
2013-03-26 19:05:00,59.2,25.9,30.23,NE,45,1.1,1.6,28,0.00,,,0.00,WUHU216HW,2013-03-27 00:05:00,
2013-03-26 19:10:00,58.9,26.6,30.24,NNW,338,0.0,1.6,29,0.00,,,0.00,WUHU216HW,2013-03-27 00:10:00,
2013-03-26 19:15:00,58.9,26.6,30.24,WNW,293,0.4,1.6,29,0.00,,,0.00,WUHU216HW,2013-03-27 00:15:00,
2013-03-26 19:20:00,58.7,27.4,30.23,West,270,1.1,1.6,30,0.00,,,0.00,WUHU216HW,2013-03-27 00:20:00,
2013-03-26 19:25:00,58.9,27.5,30.24,WSW,248,0.9,1.6,30,0.00,,,0.00,WUHU216HW,2013-03-27 00:25:00,
2013-03-26 19:30:00,58.9,27.5,30.23,WSW,248,0.0,1.6,30,0.00,,,0.00,WUHU216HW,2013-03-27 00:30:00,
2013-03-26 19:35:00,58.9,27.5,30.23,WSW,248,0.0,1.1,30,0.00,,,0.00,WUHU216HW,2013-03-27 00:35:00,
2013-03-26 19:40:00,58.7,27.4,30.23,WSW,248,0.0,0.0,30,0.00,,,0.00,WUHU216HW,2013-03-27 00:40:00,
2013-03-26 19:45:00,58.0,26.7,30.23,WSW,248,0.0,0.0,30,0.00,,,0.00,WUHU216HW,2013-03-27 00:45:00,
2013-03-26 19:50:00,57.2,26.8,30.23,ENE,68,1.1,1.1,31,0.00,,,0.00,WUHU216HW,2013-03-27 00:50:00,
2013-03-26 19:55:00,56.7,27.0,30.23,ENE,68,0.4,1.1,32,0.00,,,0.00,WUHU216HW,2013-03-27 00:55:00,
2013-03-26 20:00:00,55.6,26.0,30.23,ESE,113,0.0,1.1,32,0.00,,,0.00,WUHU216HW,2013-03-27 01:00:00,
2013-03-26 20:05:00,54.2,25.6,30.23,East,90,1.8,2.7,33,0.00,,,0.00,WUHU216HW,2013-03-27 01:05:00,
2013-03-26 20:10:00,53.6,25.1,30.23,East,90,0.7,2.7,33,0.00,,,0.00,WUHU216HW,2013-03-27 01:10:00,
2013-03-26 20:15:00,53.5,24.9,30.23,ENE,68,1.1,1.8,33,0.00,,,0.00,WUHU216HW,2013-03-27 01:15:00,
2013-03-26 20:20:00,53.3,24.8,30.23,ENE,68,1.1,1.6,33,0.00,,,0.00,WUHU216HW,2013-03-27 01:20:00,
2013-03-26 20:25:00,52.6,24.1,30.23,East,90,1.1,1.6,33,0.00,,,0.00,WUHU216HW,2013-03-27 01:25:00,
2013-03-26 20:30:00,52.2,23.8,30.23,East,90,1.1,1.1,33,0.00,,,0.00,WUHU216HW,2013-03-27 01:30:00,
2013-03-26 20:35:00,52.2,23.8,30.23,ENE,68,1.6,1.8,33,0.00,,,0.00,WUHU216HW,2013-03-27 01:35:00,
2013-03-26 20:40:00,51.7,24.0,30.23,East,90,1.1,2.0,34,0.00,,,0.00,WUHU216HW,2013-03-27 01:40:00,
2013-03-26 20:45:00,51.1,23.5,30.23,ENE,68,1.1,2.0,34,0.00,,,0.00,WUHU216HW,2013-03-27 01:45:00,
2013-03-26 20:50:00,50.9,23.3,30.23,SE,135,1.8,2.0,34,0.00,,,0.00,WUHU216HW,2013-03-27 01:50:00,
2013-03-26 20:55:00,50.8,23.2,30.23,SE,135,2.7,3.4,34,0.00,,,0.00,WUHU216HW,2013-03-27 01:55:00,
2013-03-26 21:00:00,50.8,23.2,30.23,SE,135,2.7,3.4,34,0.00,,,0.00,WUHU216HW,2013-03-27 02:00:00,
2013-03-26 21:05:00,50.8,23.2,30.23,ESE,113,2.7,3.4,34,0.00,,,0.00,WUHU216HW,2013-03-27 02:05:00,
2013-03-26 21:10:00,50.2,24.0,30.23,East,90,1.8,2.9,36,0.00,,,0.00,WUHU216HW,2013-03-27 02:10:00,
2013-03-26 21:15:00,49.7,23.6,30.23,ESE,113,2.5,2.9,36,0.00,,,0.00,WUHU216HW,2013-03-27 02:15:00,
2013-03-26 21:20:00,49.7,23.6,30.23,ESE,113,2.2,2.9,36,0.00,,,0.00,WUHU216HW,2013-03-27 02:20:00,
2013-03-26 21:25:00,49.5,23.4,30.23,ESE,113,3.1,3.4,36,0.00,,,0.00,WUHU216HW,2013-03-27 02:25:00,
2013-03-26 21:30:00,49.0,23.7,30.23,ESE,113,2.2,3.4,37,0.00,,,0.00,WUHU216HW,2013-03-27 02:30:00,
2013-03-26 21:35:00,48.6,23.3,30.23,ESE,113,2.5,3.1,37,0.00,,,0.00,WUHU216HW,2013-03-27 02:35:00,
2013-03-26 21:40:00,48.6,23.3,30.23,East,90,1.8,2.9,37,0.00,,,0.00,WUHU216HW,2013-03-27 02:40:00,
2013-03-26 21:45:00,48.4,23.2,30.24,East,90,2.5,2.5,37,0.00,,,0.00,WUHU216HW,2013-03-27 02:45:00,
2013-03-26 21:50:00,48.2,23.7,30.24,East,90,1.6,2.5,38,0.00,,,0.00,WUHU216HW,2013-03-27 02:50:00,
2013-03-26 21:55:00,47.9,23.4,30.24,East,90,1.6,2.5,38,0.00,,,0.00,WUHU216HW,2013-03-27 02:55:00,
2013-03-26 22:00:00,47.7,23.2,30.24,East,90,1.6,2.5,38,0.00,,,0.00,WUHU216HW,2013-03-27 03:00:00,
2013-03-26 22:05:00,47.5,23.0,30.24,ESE,113,1.1,2.0,38,0.00,,,0.00,WUHU216HW,2013-03-27 03:05:00,
2013-03-26 22:10:00,47.3,22.9,30.24,ESE,113,1.1,1.6,38,0.00,,,0.00,WUHU216HW,2013-03-27 03:10:00,
2013-03-26 22:15:00,47.5,23.0,30.24,SE,135,0.7,1.1,38,0.00,,,0.00,WUHU216HW,2013-03-27 03:15:00,
2013-03-26 22:20:00,47.2,22.7,30.24,East,90,0.9,1.1,38,0.00,,,0.00,WUHU216HW,2013-03-27 03:20:00,
2013-03-26 22:25:00,47.0,22.6,30.25,East,90,1.1,1.1,38,0.00,,,0.00,WUHU216HW,2013-03-27 03:25:00,
2013-03-26 22:30:00,46.8,23.0,30.25,ENE,68,2.5,2.5,39,0.00,,,0.00,WUHU216HW,2013-03-27 03:30:00,
2013-03-26 22:35:00,45.9,23.0,30.24,ENE,68,2.5,2.5,40,0.00,,,0.00,WUHU216HW,2013-03-27 03:35:00,
2013-03-26 22:40:00,45.5,23.1,30.25,ESE,113,2.5,2.7,41,0.00,,,0.00,WUHU216HW,2013-03-27 03:40:00,
2013-03-26 22:45:00,45.5,23.1,30.25,East,90,1.8,2.7,41,0.00,,,0.00,WUHU216HW,2013-03-27 03:45:00,
2013-03-26 22:50:00,45.5,23.7,30.24,East,90,2.5,2.7,42,0.00,,,0.00,WUHU216HW,2013-03-27 03:50:00,
2013-03-26 22:55:00,45.2,23.9,30.25,ESE,113,3.1,3.1,43,0.00,,,0.00,WUHU216HW,2013-03-27 03:55:00,
2013-03-26 23:00:00,45.0,23.8,30.24,ESE,113,3.4,3.6,43,0.00,,,0.00,WUHU216HW,2013-03-27 04:00:00,
2013-03-26 23:05:00,44.8,24.1,30.24,East,90,4.0,4.5,44,0.00,,,0.00,WUHU216HW,2013-03-27 04:05:00,
2013-03-26 23:10:00,45.0,24.3,30.25,East,90,2.0,4.5,44,0.00,,,0.00,WUHU216HW,2013-03-27 04:10:00,
2013-03-26 23:15:00,45.0,24.3,30.25,ESE,113,3.4,4.0,44,0.00,,,0.00,WUHU216HW,2013-03-27 04:15:00,
2013-03-26 23:20:00,45.0,23.8,30.25,ESE,113,3.1,4.0,43,0.00,,,0.00,WUHU216HW,2013-03-27 04:20:00,
2013-03-26 23:25:00,45.2,23.9,30.25,East,90,3.1,4.0,43,0.00,,,0.00,WUHU216HW,2013-03-27 04:25:00,
2013-03-26 23:30:00,45.2,23.9,30.25,ESE,113,3.4,3.4,43,0.00,,,0.00,WUHU216HW,2013-03-27 04:30:00,
2013-03-26 23:35:00,45.0,23.8,30.25,ESE,113,2.7,3.8,43,0.00,,,0.00,WUHU216HW,2013-03-27 04:35:00,
2013-03-26 23:40:00,45.0,23.2,30.25,ESE,113,2.0,3.8,42,0.00,,,0.00,WUHU216HW,2013-03-27 04:40:00,
2013-03-26 23:45:00,45.0,23.2,30.25,ESE,113,2.5,2.9,42,0.00,,,0.00,WUHU216HW,2013-03-27 04:45:00,
2013-03-26 23:50:00,45.0,23.8,30.25,ESE,113,2.0,2.9,43,0.00,,,0.00,WUHU216HW,2013-03-27 04:50:00,
2013-03-26 23:55:00,44.6,23.4,30.25,ESE,113,2.2,2.5,43,0.00,,,0.00,WUHU216HW,2013-03-27 04:55:00,